period_start,C,m1,H,J0,J1,J2,J3,J4,J5,JA,JB,JC,JD,JJ,JK,JN,#
2015-07-16 00:04:16,0.00,0.09,0.00,26.41,30.15,32.49,4.72,25.46,1013.95,2025.01,3431.00,3268.94,3549.00,349.63,342.50,18.39,0000 0000 0000 0000 000000
2015-07-16 00:09:17,-0.00,0.09,0.00,26.41,30.15,32.48,4.72,25.41,1013.83,2025.01,3431.00,3268.96,3549.00,349.98,342.81,18.42,0000 0000 0000 0000 000000
2015-07-16 00:14:19,0.00,0.09,0.00,26.42,30.15,32.47,4.62,25.39,1013.80,2025.01,3431.00,3268.94,3549.00,349.41,342.08,18.45,0000 0000 0000 0000 000000
2015-07-16 00:19:20,0.05,0.10,0.00,26.42,30.15,32.47,4.68,25.34,1013.73,2025.01,3430.97,3268.15,3548.78,350.23,342.93,18.48,0000 0000 0000 0000 000000
2015-07-16 00:24:21,0.01,0.10,0.00,26.42,30.14,32.46,4.66,25.44,1013.71,2025.02,3430.84,3268.01,3548.53,350.19,342.82,18.51,0000 0000 0000 0000 000000
2015-07-16 00:29:23,-0.01,0.10,0.00,26.42,30.13,32.45,4.64,25.42,1013.69,2025.01,3430.70,3268.00,3548.29,349.24,342.09,18.54,0000 0000 0000 0000 000000
2015-07-16 00:34:24,-0.01,0.10,0.00,26.43,30.12,32.46,4.75,25.41,1013.69,2025.03,3430.95,3268.01,3548.69,349.98,342.71,18.56,0000 0000 0000 0000 000000
2015-07-16 00:39:25,-0.00,0.10,0.00,26.43,30.12,32.45,4.68,25.30,1013.69,2025.06,3430.94,3268.01,3548.80,350.37,343.29,18.59,0000 0000 0000 0000 000000
2015-07-16 00:44:26,0.02,0.10,0.00,26.44,30.12,32.45,4.67,25.40,1013.69,2025.05,3430.73,3268.00,3548.36,350.04,342.75,18.62,0000 0000 0000 0000 000000
2015-07-16 00:49:27,0.01,0.10,0.00,26.45,30.12,32.45,4.76,25.32,1013.67,2025.04,3430.43,3268.00,3548.12,350.75,343.44,18.65,0000 0000 0000 0000 000000
2015-07-16 00:54:28,0.00,0.10,0.00,26.45,30.12,32.46,4.60,25.31,1013.64,2025.14,3430.67,3268.01,3548.38,349.15,341.87,18.68,0000 0000 0000 0000 000000
2015-07-16 00:59:29,0.01,0.10,0.00,26.45,30.12,32.45,4.74,25.43,1013.59,2025.25,3430.78,3268.01,3548.61,350.20,342.66,18.71,0000 0000 0000 0000 000000
2015-07-16 01:04:30,0.01,0.10,0.00,26.45,30.12,32.45,4.67,25.34,1013.68,2025.41,3430.87,3268.03,3548.82,349.50,342.17,18.74,0000 0000 0000 0000 000000
2015-07-16 01:09:31,-0.03,0.10,0.00,26.46,30.12,32.45,4.66,25.36,1013.69,2025.25,3430.83,3268.00,3548.54,349.52,342.13,18.77,0000 0000 0000 0000 000000
2015-07-16 01:14:33,0.02,0.10,0.00,26.47,30.12,32.46,4.72,25.30,1013.69,2025.17,3430.66,3268.00,3548.29,350.01,342.29,18.80,0000 0000 0000 0000 000000
2015-07-16 01:19:34,-0.01,0.10,0.00,26.47,30.12,32.46,4.75,25.40,1013.69,2025.13,3430.42,3268.00,3548.16,350.68,343.30,18.83,0000 0000 0000 0000 000000
2015-07-16 01:24:35,0.00,0.10,0.00,26.47,30.12,32.45,4.62,25.49,1013.69,2025.13,3430.44,3268.00,3548.11,349.48,341.95,18.86,0000 0000 0000 0000 000000
2015-07-16 01:29:36,0.01,0.10,0.00,26.47,30.12,32.45,4.73,25.52,1013.69,2025.07,3430.15,3268.00,3548.06,350.09,342.79,18.89,0000 0000 0000 0000 000000
2015-07-16 01:34:37,-0.00,0.10,0.00,26.47,30.12,32.45,4.62,25.28,1013.69,2025.08,3430.16,3268.00,3548.03,349.72,342.27,18.92,0000 0000 0000 0000 000000
2015-07-16 01:39:39,-0.00,0.10,0.00,26.48,30.12,32.45,4.69,25.32,1013.65,2025.05,3430.05,3268.00,3548.03,349.56,342.39,18.95,0000 0000 0000 0000 000000
2015-07-16 01:44:40,0.00,0.10,0.00,26.49,30.12,32.46,4.67,25.31,1013.67,2025.08,3430.10,3268.00,3548.04,350.53,343.08,18.97,0000 0000 0000 0000 000000
2015-07-16 01:49:41,0.03,0.10,0.00,26.50,30.12,32.43,4.67,25.43,1013.66,2025.21,3430.11,3268.00,3548.05,349.61,342.24,19.00,0000 0000 0000 0000 000000
2015-07-16 01:54:42,-0.00,0.10,0.00,26.51,30.12,32.45,4.69,25.41,1013.44,2025.22,3430.13,3268.00,3548.04,349.91,342.45,19.03,0000 0000 0000 0000 000000
2015-07-16 01:59:44,-0.01,0.10,0.00,26.52,30.13,32.45,4.67,25.37,1013.27,2025.14,3430.07,3268.00,3548.01,350.07,342.57,19.06,0000 0000 0000 0000 000000
2015-07-16 02:04:45,-0.01,0.10,0.00,26.52,30.14,32.44,4.72,25.40,1013.22,2025.08,3430.08,3268.00,3548.01,350.08,342.77,19.09,0000 0000 0000 0000 000000
2015-07-16 02:09:46,0.01,0.10,0.00,26.53,30.15,32.45,4.63,25.27,1013.22,2025.06,3430.05,3268.00,3548.01,349.92,342.37,19.12,0000 0000 0000 0000 000000
2015-07-16 02:14:48,-0.00,0.10,0.00,26.55,30.15,32.46,4.74,25.41,1013.21,2025.04,3430.02,3267.89,3547.99,350.16,342.54,19.15,0000 0000 0000 0000 000000
2015-07-16 02:19:49,0.02,0.10,0.00,26.55,30.15,32.46,4.65,25.43,1013.22,2025.01,3429.99,3267.35,3547.92,349.79,342.14,19.18,0000 0000 0000 0000 000000
2015-07-16 02:24:50,0.04,0.10,0.00,26.57,30.15,32.46,4.66,25.46,1013.22,2025.01,3429.71,3267.13,3547.48,350.06,342.47,19.21,0000 0000 0000 0000 000000
2015-07-16 02:29:51,0.01,0.10,0.00,26.58,30.15,32.45,4.73,25.41,1013.21,2025.00,3429.14,3267.00,3547.01,350.34,342.68,19.24,0000 0000 0000 0000 000000
2015-07-16 02:34:52,0.00,0.10,0.00,26.59,30.15,32.45,4.71,25.38,1013.22,2025.00,3429.20,3267.00,3547.00,350.28,342.69,19.27,0000 0000 0000 0000 000000
2015-07-16 02:39:54,0.00,0.10,0.00,26.60,30.15,32.47,4.69,25.45,1013.21,2025.00,3429.19,3267.00,3547.00,350.40,342.69,19.30,0000 0000 0000 0000 000000
2015-07-16 02:44:55,0.00,0.10,0.00,26.60,30.17,32.48,4.71,25.46,1013.22,2025.01,3429.11,3267.00,3547.00,350.03,342.50,19.33,0000 0000 0000 0000 000000
2015-07-16 02:49:56,0.00,0.10,0.00,26.61,30.17,32.47,4.66,25.45,1013.21,2025.00,3429.06,3267.00,3547.00,349.71,341.91,19.36,0000 0000 0000 0000 000000
2015-07-16 02:54:57,0.00,0.10,0.00,26.63,30.17,32.48,4.74,25.45,1013.21,2025.00,3429.05,3266.99,3547.00,350.58,343.03,19.38,0000 0000 0000 0000 000000
2015-07-16 02:59:59,0.00,0.10,0.00,26.64,30.17,32.47,4.62,25.33,1013.22,2025.01,3429.14,3266.99,3547.00,349.64,342.17,19.41,0000 0000 0000 0000 000000
2015-07-16 03:05:00,0.00,0.10,0.00,26.66,30.18,32.47,4.69,25.38,1013.20,2025.00,3429.06,3266.99,3547.00,350.03,342.36,19.44,0000 0000 0000 0000 000000
2015-07-16 03:10:02,0.00,0.10,0.00,26.67,30.20,32.49,4.67,25.44,1013.22,2025.00,3429.03,3266.97,3546.99,349.37,341.76,19.47,0000 0000 0000 0000 000000
2015-07-16 03:15:03,0.00,0.10,0.00,26.68,30.20,32.49,4.68,25.33,1013.25,2025.00,3429.02,3266.98,3546.98,350.08,342.27,19.50,0000 0000 0000 0000 000000
2015-07-16 03:20:04,0.00,0.10,0.00,26.70,30.20,32.50,4.66,25.49,1013.22,2025.00,3429.01,3266.95,3546.95,350.12,342.46,19.53,0000 0000 0000 0000 000000
2015-07-16 03:25:05,0.01,0.10,0.00,26.71,30.21,32.51,4.65,25.50,1013.22,2025.00,3429.00,3266.78,3546.80,350.38,342.61,19.56,0000 0000 0000 0000 000000
2015-07-16 03:30:06,-0.00,0.10,0.00,26.73,30.22,32.51,4.63,25.43,1013.20,2024.99,3428.99,3266.64,3546.65,349.58,341.69,19.59,0000 0000 0000 0000 000000
2015-07-16 03:35:07,0.01,0.10,0.00,26.74,30.22,32.52,4.66,25.49,1013.20,2024.99,3428.99,3266.56,3546.60,349.80,342.03,19.62,0000 0000 0000 0000 000000
2015-07-16 03:40:09,-0.01,0.10,0.00,26.75,30.23,32.53,4.71,25.35,1013.20,2024.99,3428.99,3266.55,3546.55,350.04,342.25,19.65,0000 0000 0000 0000 000000
2015-07-16 03:45:10,0.02,0.10,0.00,26.77,30.25,32.54,4.69,25.27,1013.20,2024.99,3428.99,3266.38,3546.36,350.31,342.52,19.68,0000 0000 0000 0000 000000
2015-07-16 03:50:11,0.01,0.10,0.00,26.77,30.25,32.55,4.70,25.38,1013.20,2024.99,3428.98,3266.15,3546.15,350.00,342.04,19.71,0000 0000 0000 0000 000000
2015-07-16 03:55:13,0.01,0.10,0.00,26.79,30.25,32.56,4.71,25.41,1013.20,2024.99,3428.92,3266.05,3546.05,350.17,342.32,19.74,0000 0000 0000 0000 000000
2015-07-16 04:00:14,0.00,0.10,0.00,26.81,30.27,32.57,4.68,25.38,1013.20,2024.98,3428.67,3266.00,3546.00,350.25,342.46,19.77,0000 0000 0000 0000 000000
2015-07-16 04:05:16,0.00,0.10,0.00,26.82,30.27,32.58,4.54,25.41,1013.20,2024.97,3428.54,3266.00,3546.00,349.05,341.22,19.79,0000 0000 0000 0000 000000
2015-07-16 04:10:17,0.00,0.10,0.00,26.84,30.27,32.58,4.68,25.41,1013.20,2024.95,3428.25,3266.00,3546.00,350.38,342.47,19.82,0000 0000 0000 0000 000000
2015-07-16 04:15:19,0.00,0.10,0.00,26.85,30.30,32.59,4.69,25.45,1013.20,2024.95,3428.12,3266.00,3545.99,349.88,341.83,19.85,0000 0000 0000 0000 000000
2015-07-16 04:20:20,-0.01,0.10,0.00,26.85,30.30,32.60,4.67,25.49,1013.20,2024.90,3428.05,3265.98,3545.97,350.13,342.13,19.88,0000 0000 0000 0000 000000
2015-07-16 04:25:21,-0.05,0.10,0.00,26.87,30.30,32.61,4.67,25.51,1013.20,2024.57,3428.00,3265.91,3545.76,350.18,342.22,19.91,0000 0000 0000 0000 000000
2015-07-16 04:30:22,-0.00,0.10,0.00,26.88,30.32,32.62,4.67,25.38,1013.20,2024.35,3427.99,3265.74,3545.31,350.03,342.08,19.94,0000 0000 0000 0000 000000
2015-07-16 04:35:24,0.00,0.10,0.00,26.90,30.32,32.63,4.71,25.43,1013.20,2024.31,3427.99,3265.75,3545.33,350.12,342.01,19.97,0000 0000 0000 0000 000000
2015-07-16 04:40:25,0.00,0.10,0.00,26.90,30.34,32.64,4.68,25.42,1013.20,2024.17,3427.99,3265.33,3545.10,349.51,341.68,20.00,0000 0000 0000 0000 000000
2015-07-16 04:45:26,0.00,0.10,0.00,26.92,30.35,32.65,4.69,25.42,1013.20,2024.10,3427.96,3265.07,3545.02,349.96,342.04,20.03,0000 0000 0000 0000 000000
2015-07-16 04:50:27,-0.01,0.10,0.00,26.92,30.36,32.66,4.70,25.38,1013.21,2024.05,3427.88,3265.02,3545.00,350.29,342.38,20.06,0000 0000 0000 0000 000000
2015-07-16 04:55:29,0.00,0.10,0.00,26.93,30.37,32.67,4.67,25.38,1013.20,2024.06,3427.79,3265.03,3545.00,350.19,342.26,20.09,0000 0000 0000 0000 000000
2015-07-16 05:00:29,0.01,0.10,0.00,26.95,30.37,32.68,4.64,25.40,1013.20,2024.05,3427.66,3265.01,3545.00,349.58,341.76,20.12,0000 0000 0000 0000 000000
2015-07-16 05:05:31,0.00,0.10,0.00,26.96,30.39,32.69,4.64,25.43,1013.20,2024.03,3427.40,3265.00,3545.00,349.91,341.83,20.15,0000 0000 0000 0000 000000
2015-07-16 05:10:32,0.00,0.10,0.00,26.97,30.40,32.70,4.62,25.30,1013.20,2024.02,3427.14,3265.00,3544.99,349.85,341.77,20.18,0000 0000 0000 0000 000000
2015-07-16 05:15:33,0.00,0.10,0.00,26.97,30.41,32.72,4.65,25.33,1013.20,2024.01,3427.05,3264.99,3544.92,350.00,341.77,20.20,0000 0000 0000 0000 000000
2015-07-16 05:20:34,-0.00,0.10,0.00,26.99,30.42,32.72,4.68,25.42,1013.20,2024.00,3427.00,3264.98,3544.89,350.05,341.83,20.23,0000 0000 0000 0000 000000
2015-07-16 05:25:35,0.01,0.10,0.00,27.01,30.42,32.72,4.70,25.57,1013.20,2024.01,3427.01,3264.97,3544.73,350.08,341.70,20.26,0000 0000 0000 0000 000000
2015-07-16 05:30:36,0.01,0.10,0.00,27.02,30.45,32.74,4.71,25.45,1013.20,2024.00,3426.99,3264.91,3544.29,350.20,341.97,20.29,0000 0000 0000 0000 000000
2015-07-16 05:35:38,0.04,0.10,0.00,27.03,30.45,32.75,4.69,25.46,1013.20,2024.00,3426.92,3264.31,3544.03,350.11,342.03,20.32,0000 0000 0000 0000 000000
2015-07-16 05:40:39,0.01,0.10,0.00,27.05,30.46,32.76,4.68,25.48,1013.20,2024.00,3426.56,3264.06,3544.00,350.13,341.72,20.35,0000 0000 0000 0000 000000
2015-07-16 05:45:40,0.01,0.10,0.00,27.05,30.47,32.77,4.70,25.40,1013.20,2024.00,3426.34,3264.02,3544.00,350.02,341.84,20.38,0000 0000 0000 0000 000000
2015-07-16 05:50:41,0.00,0.10,0.00,27.06,30.48,32.79,4.68,25.37,1013.20,2023.99,3426.15,3264.00,3544.00,349.67,341.51,20.41,0000 0000 0000 0000 000000
2015-07-16 05:55:42,0.00,0.10,0.00,27.07,30.50,32.79,4.64,25.45,1013.20,2023.99,3426.05,3264.00,3543.96,349.22,341.23,20.44,0000 0000 0000 0000 000000
2015-07-16 06:00:43,0.00,0.10,0.00,27.08,30.50,32.81,4.64,25.43,1013.20,2023.99,3426.00,3264.00,3543.84,349.61,341.20,20.47,0000 0000 0000 0000 000000
2015-07-16 06:05:45,0.00,0.10,0.00,27.09,30.52,32.82,4.66,25.38,1013.20,2023.99,3426.00,3264.00,3543.66,349.95,341.82,20.50,0000 0000 0000 0000 000000
2015-07-16 06:10:46,-0.01,0.10,0.00,27.10,30.52,32.83,4.70,25.49,1013.20,2023.98,3426.00,3263.99,3543.66,350.28,342.14,20.53,0000 0000 0000 0000 000000
2015-07-16 06:15:47,0.01,0.10,0.00,27.10,30.54,32.84,4.71,25.40,1013.20,2023.98,3426.00,3263.98,3543.25,349.90,341.61,20.56,0000 0000 0000 0000 000000
2015-07-16 06:20:48,-0.02,0.10,0.00,27.12,30.55,32.84,4.63,25.45,1013.20,2023.91,3425.97,3263.93,3543.05,349.87,341.63,20.59,0000 0000 0000 0000 000000
2015-07-16 06:25:50,-0.00,0.10,0.00,27.12,30.55,32.85,4.63,25.63,1013.18,2023.71,3425.79,3263.58,3543.01,349.42,341.29,20.61,0000 0000 0000 0000 000000
2015-07-16 06:30:51,0.00,0.10,0.00,27.13,30.57,32.85,4.68,25.39,1013.20,2023.63,3425.77,3263.24,3543.00,349.71,341.38,20.64,0000 0000 0000 0000 000000
2015-07-16 06:35:52,0.02,0.10,0.00,27.15,30.57,32.87,4.72,25.43,1013.20,2023.74,3425.88,3263.40,3543.00,350.35,342.04,20.67,0000 0000 0000 0000 000000
2015-07-16 06:40:53,-0.00,0.10,0.00,27.15,30.59,32.87,4.65,25.44,1013.20,2023.68,3425.75,3263.21,3543.00,349.96,341.73,20.70,0000 0000 0000 0000 000000
2015-07-16 06:45:55,-0.00,0.10,0.00,27.17,30.60,32.88,4.68,25.33,1013.17,2023.42,3425.34,3263.05,3542.98,349.84,341.53,20.73,0000 0000 0000 0000 000000
2015-07-16 06:50:56,-0.04,0.10,0.00,27.18,30.60,32.89,4.72,25.46,1013.16,2023.24,3425.10,3263.01,3542.95,350.35,342.04,20.76,0000 0000 0000 0000 000000
2015-07-16 06:55:57,-0.01,0.10,0.00,27.20,30.62,32.91,4.70,25.45,1013.09,2023.15,3425.16,3263.00,3542.89,350.15,341.71,20.79,0000 0000 0000 0000 000000
2015-07-16 07:00:59,-0.00,0.10,0.00,27.22,30.62,32.92,4.70,25.37,1013.00,2023.06,3425.04,3263.00,3542.59,349.71,341.43,20.82,0000 0000 0000 0000 000000
2015-07-16 07:06:00,0.00,0.10,0.00,27.24,30.64,32.93,4.67,25.41,1012.86,2023.02,3425.02,3263.00,3542.14,350.04,341.49,20.85,0000 0000 0000 0000 000000
2015-07-16 07:11:01,0.00,0.10,0.00,27.26,30.65,32.93,4.63,25.40,1012.84,2023.00,3425.00,3263.00,3542.03,349.86,341.36,20.88,0000 0000 0000 0000 000000
2015-07-16 07:16:02,-0.00,0.10,0.00,27.28,30.66,32.94,4.67,25.47,1012.83,2023.00,3425.00,3263.00,3542.01,349.73,341.23,20.91,0000 0000 0000 0000 000000
2015-07-16 07:21:04,-0.00,0.10,0.00,27.30,30.67,32.95,4.66,25.37,1012.77,2023.00,3425.00,3262.99,3542.00,350.14,341.47,20.94,0000 0000 0000 0000 000000
2015-07-16 07:26:05,0.01,0.10,0.00,27.32,30.67,32.96,4.63,25.57,1012.75,2023.00,3424.86,3262.89,3542.00,349.86,341.39,20.97,0000 0000 0000 0000 000000
2015-07-16 07:31:06,-0.00,0.10,0.00,27.35,30.70,32.97,4.64,25.27,1012.74,2023.00,3424.78,3262.72,3541.98,349.83,341.19,21.00,0000 0000 0000 0000 000000
2015-07-16 07:36:08,0.02,0.10,0.00,27.37,30.70,32.98,4.67,25.35,1012.73,2022.99,3424.69,3262.36,3541.93,349.80,340.96,21.02,0000 0000 0000 0000 000000
2015-07-16 07:41:09,0.02,0.10,0.00,27.40,30.72,32.99,4.67,25.32,1012.71,2022.96,3424.42,3262.09,3541.62,349.92,341.24,21.05,0000 0000 0000 0000 000000
2015-07-16 07:46:11,-0.00,0.10,0.00,27.42,30.72,33.01,4.63,25.39,1012.71,2022.96,3424.47,3262.06,3541.50,349.64,340.91,21.08,0000 0000 0000 0000 000000
2015-07-16 07:51:12,0.01,0.10,0.00,27.44,30.74,33.01,4.65,25.29,1012.71,2022.95,3424.33,3262.02,3541.23,349.93,341.17,21.11,0000 0000 0000 0000 000000
2015-07-16 07:56:13,-0.01,0.10,0.00,27.46,30.75,33.02,4.61,25.35,1012.71,2022.86,3424.10,3262.00,3541.09,349.90,341.31,21.14,0000 0000 0000 0000 000000
2015-07-16 08:01:14,-0.00,0.10,0.00,27.48,30.76,33.04,4.62,25.30,1012.71,2022.82,3424.08,3262.00,3541.05,349.64,340.70,21.17,0000 0000 0000 0000 000000
2015-07-16 08:06:16,-0.02,0.10,0.00,27.51,30.77,33.05,4.64,25.27,1012.71,2022.67,3424.02,3262.00,3541.01,349.76,340.97,21.20,0000 0000 0000 0000 000000
2015-07-16 08:11:17,-0.01,0.10,0.00,27.54,30.79,33.05,4.63,25.37,1012.71,2022.51,3424.01,3262.00,3541.01,349.60,340.63,21.23,0000 0000 0000 0000 000000
2015-07-16 08:16:18,-0.05,0.10,0.00,27.57,30.80,33.07,4.59,25.28,1012.71,2022.19,3424.00,3261.91,3540.96,349.57,340.80,21.26,0000 0000 0000 0000 000000
2015-07-16 08:21:20,0.05,0.10,0.00,27.61,30.82,33.09,4.71,25.39,1012.71,2022.06,3423.74,3261.12,3540.21,350.61,341.60,21.29,0000 0000 0000 0000 000000
2015-07-16 08:26:22,0.03,0.10,0.00,27.63,30.83,33.10,4.64,25.57,1012.71,2022.00,3423.15,3260.79,3539.74,350.07,341.08,21.32,0000 0000 0000 0000 000000
2015-07-16 08:31:23,-0.01,0.10,0.00,27.65,30.85,33.11,4.66,25.40,1012.71,2022.00,3422.99,3260.65,3539.50,349.99,340.99,21.35,0000 0000 0000 0000 000000
2015-07-16 08:36:24,0.02,0.10,0.00,27.65,30.86,33.13,4.70,25.55,1012.68,2022.00,3422.99,3260.52,3539.43,349.88,340.83,21.38,0000 0000 0000 0000 000000
2015-07-16 08:41:25,0.03,0.10,0.00,27.67,30.87,33.15,4.69,25.47,1012.69,2022.00,3422.86,3260.14,3539.12,350.11,341.02,21.41,0000 0000 0000 0000 000000
2015-07-16 08:46:26,0.00,0.10,0.00,27.70,30.90,33.16,4.69,25.38,1012.66,2022.00,3422.86,3260.07,3539.03,350.12,341.06,21.43,0000 0000 0000 0000 000000
2015-07-16 08:51:27,0.02,0.11,0.00,27.70,30.91,33.18,4.58,25.41,1012.71,2022.00,3422.43,3260.01,3539.01,349.62,340.59,21.46,0000 0000 0000 0000 000000
2015-07-16 08:56:29,0.00,0.11,0.00,27.71,30.92,33.20,4.69,25.42,1012.71,2022.00,3422.10,3260.00,3539.00,349.82,340.97,21.49,0000 0000 0000 0000 000000
2015-07-16 09:01:30,0.01,0.11,0.00,27.74,30.94,33.21,4.66,25.33,1012.69,2021.96,3421.89,3259.79,3538.75,350.37,341.32,21.52,0000 0000 0000 0000 000000
2015-07-16 09:06:31,0.18,0.11,0.00,27.75,30.95,33.23,4.69,25.30,1012.69,2021.93,3420.50,3258.08,3536.34,350.19,341.07,21.55,0000 0000 0000 0000 000000
2015-07-16 09:11:33,0.01,0.11,0.00,27.77,30.97,33.24,4.63,25.43,1012.71,2021.91,3420.13,3257.85,3536.01,349.25,340.16,21.58,0000 0000 0000 0000 000000
2015-07-16 09:16:34,0.06,0.11,0.00,27.78,30.98,33.25,4.73,25.43,1012.71,2021.82,3419.83,3256.94,3535.17,350.60,341.45,21.61,0000 0000 0000 0000 000000
2015-07-16 09:21:35,-0.02,0.11,0.00,27.81,31.00,33.27,4.69,25.31,1012.71,2021.66,3419.76,3256.68,3535.00,349.99,340.84,21.64,0000 0000 0000 0000 000000
2015-07-16 09:26:37,-0.03,0.11,0.00,27.82,31.02,33.29,4.68,25.48,1012.71,2021.30,3419.29,3256.22,3534.95,349.86,340.72,21.67,0000 0000 0000 0000 000000
2015-07-16 09:31:38,-0.03,0.11,0.00,27.84,31.03,33.31,4.64,25.32,1012.71,2021.15,3419.17,3256.08,3534.97,349.55,340.31,21.70,0000 0000 0000 0000 000000
2015-07-16 09:36:39,0.02,0.11,0.00,27.86,31.05,33.33,4.61,25.23,1012.71,2021.08,3419.04,3256.01,3534.36,349.14,339.98,21.73,0000 0000 0000 0000 000000
2015-07-16 09:41:40,-0.00,0.11,0.00,27.88,31.06,33.34,4.67,25.23,1012.71,2021.02,3419.00,3256.00,3534.04,350.26,341.17,21.76,0000 0000 0000 0000 000000
2015-07-16 09:46:41,-0.00,0.11,0.00,27.89,31.08,33.35,4.64,25.23,1012.71,2021.00,3418.99,3256.00,3534.00,349.83,340.71,21.79,0000 0000 0000 0000 000000
2015-07-16 09:51:43,0.00,0.11,0.00,27.90,31.10,33.36,4.62,25.32,1012.71,2021.00,3418.93,3255.92,3534.00,350.07,340.76,21.82,0000 0000 0000 0000 000000
2015-07-16 09:56:44,0.03,0.11,0.00,27.92,31.12,33.38,4.66,25.37,1012.71,2021.00,3418.53,3255.61,3533.97,350.26,340.96,21.84,0000 0000 0000 0000 000000
2015-07-16 10:01:45,0.02,0.11,0.00,27.94,31.13,33.39,4.66,25.28,1012.71,2021.00,3418.08,3255.12,3533.77,350.37,341.11,21.87,0000 0000 0000 0000 000000
2015-07-16 10:06:46,0.01,0.11,0.00,27.96,31.15,33.41,4.73,25.26,1012.71,2020.98,3418.01,3255.01,3533.23,350.05,340.71,21.90,0000 0000 0000 0000 000000
2015-07-16 10:11:47,0.00,0.11,0.00,27.98,31.17,33.43,4.64,25.37,1012.71,2020.97,3418.00,3255.00,3533.02,349.66,340.11,21.93,0000 0000 0000 0000 000000
2015-07-16 10:16:48,-0.02,0.11,0.00,28.00,31.19,33.43,4.66,25.31,1012.71,2020.86,3417.99,3254.99,3533.00,350.35,340.67,21.96,0000 0000 0000 0000 000000
2015-07-16 10:21:49,-0.02,0.11,0.00,28.01,31.21,33.45,4.59,25.25,1012.70,2020.70,3417.99,3254.98,3533.00,349.93,340.48,21.99,0000 0000 0000 0000 000000
2015-07-16 10:26:51,-0.05,0.11,0.00,28.02,31.22,33.46,4.68,25.55,1012.70,2020.28,3417.79,3254.61,3532.94,349.90,340.45,22.02,0000 0000 0000 0000 000000
2015-07-16 10:31:52,0.03,0.11,0.00,28.05,31.25,33.47,4.67,25.38,1012.71,2020.05,3417.35,3254.14,3532.57,350.02,340.68,22.05,0000 0000 0000 0000 000000
2015-07-16 10:36:53,0.01,0.11,0.00,28.06,31.27,33.49,4.63,25.36,1012.71,2020.01,3417.02,3254.02,3532.12,349.67,340.06,22.08,0000 0000 0000 0000 000000
2015-07-16 10:41:55,0.00,0.11,0.00,28.07,31.29,33.50,4.64,25.38,1012.64,2020.00,3417.00,3254.00,3532.01,349.51,340.02,22.11,0000 0000 0000 0000 000000
2015-07-16 10:46:56,0.00,0.11,0.00,28.09,31.31,33.52,4.67,25.27,1012.57,2020.00,3417.00,3253.99,3532.00,350.27,340.73,22.14,0000 0000 0000 0000 000000
2015-07-16 10:51:57,0.00,0.11,0.00,28.11,31.33,33.55,4.64,25.25,1012.55,2020.00,3416.98,3253.95,3531.99,350.02,340.47,22.17,0000 0000 0000 0000 000000
2015-07-16 10:56:58,0.01,0.11,0.00,28.12,31.35,33.58,4.64,25.17,1012.29,2020.00,3416.91,3253.77,3531.95,349.40,339.81,22.20,0000 0000 0000 0000 000000
2015-07-16 11:02:00,0.05,0.11,0.00,28.15,31.37,33.61,4.70,25.22,1012.26,2019.99,3416.40,3253.29,3531.49,350.45,340.84,22.23,0000 0000 0000 0000 000000
2015-07-16 11:07:01,0.01,0.12,0.00,28.16,31.39,33.64,4.61,25.35,1012.29,2019.98,3416.06,3253.04,3531.10,349.83,340.16,22.25,0000 0000 0000 0000 000000
2015-07-16 11:12:03,-0.00,0.12,0.00,28.19,31.41,33.66,4.61,25.21,1012.28,2019.93,3416.01,3253.00,3531.01,350.17,340.38,22.28,0000 0000 0000 0000 000000
2015-07-16 11:17:04,-0.06,0.11,0.00,28.21,31.43,33.70,4.64,25.26,1012.24,2019.63,3416.00,3252.99,3531.00,350.18,340.31,22.31,0000 0000 0000 0000 000000
2015-07-16 11:22:05,-0.03,0.11,0.00,28.22,31.45,33.73,4.62,25.24,1012.23,2019.36,3415.98,3252.97,3530.95,349.79,340.12,22.34,0000 0000 0000 0000 000000
2015-07-16 11:27:06,-0.00,0.11,0.00,28.22,31.47,33.75,4.63,25.38,1012.23,2019.13,3415.89,3252.80,3530.73,349.74,339.93,22.37,0000 0000 0000 0000 000000
2015-07-16 11:32:07,0.01,0.11,0.00,28.24,31.49,33.78,4.64,25.32,1012.23,2019.05,3415.82,3252.65,3530.53,350.13,340.37,22.40,0000 0000 0000 0000 000000
2015-07-16 11:37:08,0.04,0.11,0.00,28.25,31.51,33.80,4.67,25.20,1012.25,2019.03,3415.34,3252.23,3530.10,350.03,339.89,22.43,0000 0000 0000 0000 000000
2015-07-16 11:42:09,0.01,0.11,0.00,28.24,31.52,33.82,4.68,25.23,1012.23,2019.01,3415.06,3252.04,3530.02,350.39,340.46,22.46,0000 0000 0000 0000 000000
2015-07-16 11:47:11,-0.00,0.11,0.00,28.25,31.54,33.82,4.70,25.28,1012.22,2019.00,3415.03,3252.01,3530.00,350.43,340.50,22.49,0000 0000 0000 0000 000000
2015-07-16 11:52:12,0.00,0.11,0.00,28.23,31.55,33.83,4.63,25.29,1012.22,2019.00,3415.00,3252.00,3529.99,349.70,340.06,22.52,0000 0000 0000 0000 000000
2015-07-16 11:57:13,0.00,0.11,0.00,28.22,31.56,33.85,4.55,25.23,1012.22,2019.00,3414.98,3251.99,3529.93,349.70,340.06,22.55,0000 0000 0000 0000 000000
2015-07-16 12:02:14,0.01,0.11,0.00,28.20,31.57,33.86,4.63,25.20,1012.22,2018.99,3414.92,3251.97,3529.77,350.10,340.26,22.58,0000 0000 0000 0000 000000
2015-07-16 12:07:16,0.03,0.11,0.00,28.18,31.57,33.88,4.65,25.19,1012.21,2018.97,3414.52,3251.68,3529.17,349.63,339.88,22.61,0000 0000 0000 0000 000000
2015-07-16 12:12:17,0.03,0.12,0.00,28.15,31.60,33.90,4.68,25.19,1012.21,2018.97,3414.12,3251.34,3529.02,350.36,340.56,22.64,0000 0000 0000 0000 000000
2015-07-16 12:17:18,-0.00,0.12,0.00,28.12,31.60,33.90,4.68,25.27,1011.98,2018.95,3414.05,3251.21,3529.02,350.37,340.60,22.66,0000 0000 0000 0000 000000
2015-07-16 12:22:19,0.00,0.12,0.00,28.09,31.60,33.91,4.66,25.27,1011.77,2018.93,3414.03,3251.05,3529.01,350.27,340.31,22.69,0000 0000 0000 0000 000000
2015-07-16 12:27:21,0.00,0.12,0.00,28.07,31.60,33.91,4.64,25.42,1011.75,2018.92,3414.00,3251.02,3529.00,349.69,339.89,22.72,0000 0000 0000 0000 000000
2015-07-16 12:32:22,-0.00,0.12,0.00,28.04,31.60,33.91,4.62,25.23,1011.75,2018.93,3414.01,3251.04,3529.00,349.54,339.76,22.75,0000 0000 0000 0000 000000
2015-07-16 12:37:23,0.00,0.12,0.00,28.02,31.60,33.90,4.65,25.32,1011.74,2018.95,3414.00,3251.04,3529.00,349.46,339.86,22.78,0000 0000 0000 0000 000000
2015-07-16 12:42:25,0.00,0.12,0.00,28.00,31.60,33.90,4.65,25.27,1011.74,2018.98,3414.00,3251.05,3529.01,350.23,340.47,22.81,0000 0000 0000 0000 000000
2015-07-16 12:47:26,0.00,0.12,0.00,27.98,31.60,33.90,4.70,25.26,1011.75,2018.99,3413.99,3251.05,3529.00,349.95,340.26,22.84,0000 0000 0000 0000 000000
2015-07-16 12:52:27,0.00,0.12,0.00,27.97,31.60,33.90,4.70,25.26,1011.74,2018.99,3413.99,3251.03,3529.00,350.41,340.74,22.87,0000 0000 0000 0000 000000
2015-07-16 12:57:28,0.00,0.12,0.00,27.95,31.59,33.90,4.69,25.28,1011.73,2018.98,3413.95,3251.02,3529.00,350.63,340.64,22.90,0000 0000 0000 0000 000000
2015-07-16 13:02:30,0.00,0.12,0.00,27.94,31.58,33.90,4.68,25.27,1011.73,2018.99,3413.93,3251.01,3529.00,349.92,340.50,22.93,0000 0000 0000 0000 000000